Marshalltown, IA

10:17 PM CST on January 23, 2017 (GMT -0600)
Marshalltown Municipal

Weather History for KMIW - October, 2012

Change the Weather History Date:

Friday, October 12, 2012

  Actual Average Record
Temperature  
Mean Temperature 43 °F 52 °F  
Max Temperature 57 °F 63 °F 84 °F (1999)
Min Temperature 28 °F 40 °F 26 °F (2006)
Degree Days  
Heating Degree Days 22 14  
Month to date heating degree days 181 142  
Since 1 July heating degree days 359 302  
Cooling Degree Days 0 0  
Month to date cooling degree days 0 10  
Year to date cooling degree days 1074 728  
Moisture  
Dew Point 25 °F    
Average Humidity 50    
Maximum Humidity 77    
Minimum Humidity 22    
Precipitation  
Precipitation 0.16 in 0.08 in 2.22 in (1997)
Month to date precipitation 0.27 0.83  
Sea Level Pressure  
Sea Level Pressure 30.30 in    
Wind  
Wind Speed 11 mph (ESE)    
Max Wind Speed 17 mph    
Max Gust Speed 21 mph    
Visibility 10 miles    
Events Rain , Thunderstorm    
T = Trace of Precipitation, MM = Missing Value Source: NWS Daily Summary

Daily Weather History Graph

Daily Weather History Graph

Search for Another Location

Airport or City:

Trip Planner

Search our weather history database for the weather conditions in past years. The results will help you decide how hot, cold, wet, or windy it might be!

Date:

Astronomy

Oct. 12, 2012 Rise Set
Actual Time 7:21 AM CDT 6:33 PM CDT
Civil Twilight 6:53 AM CDT 7:01 PM CDT
Nautical Twilight 6:20 AM CDT 7:34 PM CDT
Astronomical Twilight 5:48 AM CDT 8:06 PM CDT
Moon 4:02 AM CDT (10/12) 4:46 PM CDT (10/12)
Length of Visible Light 12h 08m
Length of Day
11h 12m
Waning Crescent, 10% of the Moon is Illuminated
Oct 12
Waning Crescent
Oct 15
New
Oct 21
First Quarter
Oct 29
Full
Nov 6
Last Quarter

Hourly Weather History & Observations

Time (CDT) Temp. Windchill Dew Point Humidity Pressure Visibility Wind Dir Wind Speed Gust Speed Precip Events Conditions
12:53 AM 39.0 °F 33.4 °F 25.0 °F 57% 30.37 in 10.0 mi North 8.1 mph - N/A   Mostly Cloudy
1:53 AM 37.0 °F 29.8 °F 21.9 °F 54% 30.38 in 10.0 mi North 10.4 mph - N/A   Clear
3:53 AM 33.1 °F 25.5 °F 21.9 °F 64% 30.39 in 10.0 mi NNE 9.2 mph - N/A   Clear
5:53 AM 28.0 °F 21.7 °F 19.9 °F 72% 30.41 in 10.0 mi NE 5.8 mph - N/A   Clear
6:53 AM 28.9 °F 21.9 °F 21.0 °F 72% 30.42 in 10.0 mi ENE 6.9 mph - N/A   Clear
7:53 AM 28.9 °F 21.9 °F 21.0 °F 72% 30.44 in 10.0 mi ENE 6.9 mph - N/A   Clear
8:53 AM 36.0 °F 29.6 °F 24.1 °F 62% 30.46 in 10.0 mi East 8.1 mph - N/A   Clear
9:53 AM 42.1 °F 33.9 °F 24.1 °F 49% 30.45 in 10.0 mi ESE 17.3 mph - N/A   Clear
10:53 AM 46.0 °F 39.3 °F 23.0 °F 40% 30.43 in 10.0 mi ESE 16.1 mph - N/A   Clear
11:53 AM 48.9 °F - 21.9 °F 35% 30.41 in 10.0 mi ESE 10.4 mph - N/A   Clear
12:53 PM 52.0 °F - 21.0 °F 30% 30.38 in 10.0 mi SE 13.8 mph - N/A   Unknown
1:53 PM 53.1 °F - 19.0 °F 26% 30.35 in 10.0 mi SE 13.8 mph 21.9 mph N/A   Clear
2:53 PM 55.0 °F - 18.0 °F 23% 30.31 in 10.0 mi SE 15.0 mph - N/A   Clear
3:53 PM 55.9 °F - 17.1 °F 22% 30.28 in 10.0 mi SE 15.0 mph 19.6 mph N/A   Clear
4:53 PM 57.0 °F - 19.9 °F 24% 30.24 in 10.0 mi SE 15.0 mph - N/A   Clear
5:53 PM 54.0 °F - 19.9 °F 26% 30.22 in 10.0 mi ESE 10.4 mph - N/A   Clear
6:53 PM 48.9 °F - 21.0 °F 33% 30.20 in 10.0 mi ESE 8.1 mph - N/A   Clear
7:53 PM 50.0 °F - 21.9 °F 33% 30.17 in 10.0 mi ESE 11.5 mph - N/A   Scattered Clouds
8:12 PM 51.8 °F - 23.0 °F 33% 30.14 in 10.0 mi ESE 12.7 mph - N/A Thunderstorm Thunderstorm
8:27 PM 48.2 °F - 30.2 °F 50% 30.14 in 7.0 mi SE 16.1 mph - 0.04 in Rain Light Rain
9:53 PM 46.9 °F - 37.0 °F 68% 30.16 in 10.0 mi SE 11.5 mph - 0.06 in   Overcast
10:13 PM 48.2 °F - 37.4 °F 66% 30.13 in 10.0 mi SE 10.4 mph - N/A   Overcast
10:53 PM 48.0 °F - 39.9 °F 74% 30.12 in 10.0 mi SE 12.7 mph - N/A   Overcast
11:53 PM 48.0 °F - 41.0 °F 77% 30.10 in 10.0 mi SSE 13.8 mph - N/A   Overcast